FENGYUN 1C DEB

Satellite information

Favourite Embed

Satellite Type and Status

DEBRISIN ORBIT

Key statistics

Satellite FENGYUN 1C DEB at a glance.

Uptime

9659

Days in orbit

Revolutions

≈ 14.1

Per day

Orbit

SSO

Sun Synchronous Orbit

Inclination

98.8

Latest

Satellite identification and parameters

Extended collection of information and parameters for FENGYUN 1C DEB.

Object identification

Identified? True

Debris? True

Object name: FENGYUN 1C DEB

International designator: 1999-025DW

Object number (NORAD): 29828

Object ID (CCSDS): 29828

Country: PEOPLES REPUBLIC OF CHINA (PRC)

Current information (Y/N): Y

RCS size: SMALL

Orbital parameters

Period: 102.277 minutes

Inclination: 98.7768 deg

SMA: 7244.572 km

Apoapsis: 909.33 km

Periapsis: 823.544 km

RAAN: 338.6323 deg

Eccentricy: 0.00592073

Argument of periapsis: 312.1079 deg

Mean anomaly: 200.3766 deg

Mean motion: 14.07938479 rev/day

Mean motion (dot): 0.00001513 rev/day2

B* drag term: 0.00090163644 1/REarth

Two-line elements (TLE)

Creation date: Oct. 19, 2025, 2:20 a.m.

Reference frame: TEME

Reference center: EARTH

Epoch: Oct. 18, 2025, 2:52 p.m. UTC

TLE line 0: 0 FENGYUN 1C DEB

TLE line 1: 1 29828U 99025DW 25291.61961890 .00001513 00000-0 90164-3 0 9996

TLE line 2: 2 29828 98.7768 338.6323 0059207 312.1079 200.3766 14.07938479959616

Live tracking on map

Real-time ground track for satellite FENGYUN 1C DEB.

In-orbit conjunctions

A list of the most updated potential collisions computed for object FENGYUN 1C DEB.

Target Orbit TCA Probability of collision Miss distance Type
METEOR 1-11 LEO 2025-10-18 17:08:06 0.0001727643 74.0 (m) PAYLOAD
METEOR 1-24 LEO 2024-09-16 00:18:58 0.000187521 110.0 (m) PAYLOAD

Associated space launch

Chinese polar orbiting meteorological satellite

FENGYUN 1C DEB was lifted into orbit during the mission ‘Long March 4B | Feng Yun 1C’, on board a Long March 4B space rocket.

The launch took place on May 10, 1999, 1:33 a.m. from Launch Complex 7.

For more information about the launch, click the button.

Launch to space Long March 4B | Feng Yun 1C
Long March 4B | Feng Yun 1C

Agency: N/A

Status: Launch Successful

Launch date: May 10, 1999, 1:33 a.m. UTC

Rocket: Long March 4B

Launch pad: Launch Complex 7

Location: Taiyuan Satellite Launch Center, People's Republic of China

...

Latest news about this satellite

There are no fresh news available about this satellite. Check back as we update our databases every day.


Newsletter sign-up

Weekly statistics, charts and insights to help you stay on top of the space industry.